Prescott, AZ

1:03 PM MST on November 13, 2019 (GMT -0700)
Love

Weather History for KPRC - September, 2019

Change the Weather History Date:

Tuesday, September 17, 2019

  Actual Average Record
Temperature  
Mean Temperature 69 °F 67 °F  
Max Temperature 80 °F 82 °F 94 °F (1962)
Min Temperature 58 °F 53 °F 40 °F (1968)
Degree Days  
Heating Degree Days 0    
Month to date heating degree days 0  
Since 1 July heating degree days 0  
Cooling Degree Days 4    
Month to date cooling degree days 150  
Year to date cooling degree days 1125  
Growing Degree Days 19 (Base 50)    
Moisture  
Dew Point 50 °F    
Average Humidity 57    
Maximum Humidity 84    
Minimum Humidity 30    
Precipitation  
Precipitation 0.01 in 0.05 in 0.71 in (1965)
Month to date precipitation 1.39 0.92  
Year to date precipitation 9.50 10.58  
Sea Level Pressure  
Sea Level Pressure 29.93 in    
Wind  
Wind Speed 7 mph ()    
Max Wind Speed 24 mph    
Max Gust Speed 30 mph    
Visibility 10.0 miles    
Events Rain , Thunderstorm    
T = Trace of Precipitation, MM = Missing Value Source: Averaged Metar Reports

Daily Weather History Graph

Daily Weather History Graph

Search for Another Location

Airport or City:

Astronomy

Sep. 17, 2019 Rise Set
Actual Time 6:14 AM MST 6:33 PM MST
Civil Twilight 5:48 AM MST 6:58 PM MST
Nautical Twilight 5:19 AM MST 7:28 PM MST
Astronomical Twilight 4:49 AM MST 7:58 PM MST
Moon 8:46 PM MST (9/17) 9:15 AM MST (9/17)
Length of Visible Light 13h 10m
Length of Day
12h 19m
Waning Gibbous, 88% of the Moon is Illuminated
Sep 17
Waning Gibbous
Sep 21
Last Quarter
Sep 28
New
Oct 5
First Quarter
Oct 13
Full

Hourly Weather History & Observations

Time (MST) Temp. Dew Point Humidity Pressure Visibility Wind Dir Wind Speed Gust Speed Precip Events Conditions
12:03 AM 63.0 °F 55.0 °F 75% 30.11 in 10.0 mi South 4.6 mph - N/A Thunderstorm Mostly Cloudy
12:36 AM 63.0 °F 55.9 °F 78% 30.12 in 10.0 mi SSE 9.2 mph - 0.01 in Thunderstorm Thunderstorm
12:51 AM 60.8 °F 55.4 °F 82% 30.12 in 10.0 mi SSW 5.8 mph - 0.01 in Rain , Thunderstorm Light Rain
12:53 AM 61.0 °F 55.9 °F 83% 29.89 in 10.0 mi SSW 5.8 mph - 0.01 in Rain , Thunderstorm Light Rain
1:02 AM 62.1 °F 55.9 °F 80% 30.12 in 10.0 mi South 6.9 mph - 0.00 in Rain Light Rain
1:53 AM 61.0 °F 55.0 °F 81% 29.89 in 10.0 mi SSE 8.1 mph - 0.00 in   Clear
2:53 AM 62.1 °F 54.0 °F 75% 29.88 in 10.0 mi SSW 6.9 mph - N/A   Overcast
3:53 AM 61.0 °F 55.0 °F 81% 29.88 in 10.0 mi Calm Calm - N/A   Scattered Clouds
4:53 AM 61.0 °F 52.0 °F 72% 29.89 in 10.0 mi SW 8.1 mph - N/A   Clear
5:53 AM 62.1 °F 53.1 °F 72% 29.91 in 10.0 mi South 6.9 mph - N/A   Clear
6:53 AM 61.0 °F 54.0 °F 78% 29.91 in 10.0 mi SSW 6.9 mph - N/A   Clear
7:53 AM 66.9 °F 55.0 °F 66% 29.91 in 10.0 mi South 5.8 mph - N/A   Clear
8:53 AM 71.1 °F 50.0 °F 47% 29.92 in 10.0 mi SSW 8.1 mph - N/A   Clear
9:53 AM 73.0 °F 46.9 °F 39% 29.94 in 10.0 mi SW 8.1 mph - N/A   Mostly Cloudy
10:53 AM 73.9 °F 51.1 °F 45% 29.94 in 10.0 mi South 9.2 mph - N/A   Mostly Cloudy
11:53 AM 75.9 °F 48.9 °F 38% 29.93 in 10.0 mi SW 12.7 mph 24.2 mph N/A   Mostly Cloudy
12:53 PM 75.9 °F 50.0 °F 40% 29.91 in 10.0 mi South 9.2 mph - N/A   Scattered Clouds
1:53 PM 78.1 °F 45.0 °F 31% 29.89 in 10.0 mi WSW 18.4 mph 29.9 mph N/A   Scattered Clouds
2:53 PM 78.1 °F 46.0 °F 32% 29.87 in 10.0 mi SSW 11.5 mph 23.0 mph N/A   Partly Cloudy
3:53 PM 77.0 °F 45.0 °F 32% 29.87 in 10.0 mi SW 15.0 mph 21.9 mph N/A   Mostly Cloudy
4:53 PM 75.9 °F 45.0 °F 33% 29.86 in 10.0 mi SW 15.0 mph 24.2 mph N/A   Scattered Clouds
5:53 PM 75.9 °F 42.1 °F 30% 29.86 in 10.0 mi SSW 12.7 mph 20.7 mph N/A   Partly Cloudy
6:53 PM 72.0 °F 43.0 °F 35% 29.87 in 10.0 mi SW 6.9 mph - N/A   Partly Cloudy
7:53 PM 69.1 °F 46.0 °F 44% 29.88 in 10.0 mi South 3.5 mph - N/A   Partly Cloudy
8:53 PM 66.0 °F 48.9 °F 54% 29.88 in 10.0 mi South 4.6 mph - N/A   Clear
9:53 PM 64.0 °F 50.0 °F 60% 29.88 in 10.0 mi South 5.8 mph - N/A   Clear
10:53 PM 62.1 °F 50.0 °F 65% 29.90 in 10.0 mi South 5.8 mph - N/A   Partly Cloudy
11:53 PM 61.0 °F 46.0 °F 58% 29.89 in 10.0 mi SSW 4.6 mph - N/A   Clear